This demonstration page uses our WeatherBlox Daily Observations layout. Learn more.

Left ArrowRight Arrow

39.51506, -84.39828

Hourly Observations for July 2, 2022

Temp ( °F °C ) Dew Point ( °F °C ) Humidity (%) Winds ( mph kmh ) Pressure ( in mb ) Visibility ( mi km ) Precip ( " mm )
12:15 am 00:15 Clear 68 20 68 20 100 100 N 5 7 29.96 1015 10 16 0.00 0.00
12:35 am 00:35 Clear 69 20.5 68 20.2 98 98 Calm 29.96 1015 10 16 0.00 0.00
12:55 am 00:55 Clear 68 20 N/A N/A Calm 29.96 1015 10 16 0.00 0.00
1:15 am 01:15 Clear 68 20 N/A N/A Calm 29.96 1015 10 16 0.00 0.00
1:35 am 01:35 Clear 69 20.5 69 20.5 100 100 Calm 29.96 1015 10 16 0.00 0.00
1:55 am 01:55 Clear 68 20 N/A N/A Calm 29.96 1015 10 16 0.00 0.00
2:15 am 02:15 Clear 68 20 N/A N/A Calm 29.96 1015 10 16 0.00 0.00
2:35 am 02:35 Partly Cloudy 70 21 N/A N/A NNW 5 7 29.96 1015 10 16 0.00 0.00
2:55 am 02:55 Clear 70 21 N/A N/A Calm 29.96 1015 10 16 0.00 0.00
3:15 am 03:15 Mostly Cloudy 70 21.1 70 20.9 99 99 Calm 29.96 1015 10 16 0.00 0.00
3:35 am 03:35 Mostly Cloudy 70 21.2 70 21 99 99 NNE 3 6 29.96 1015 10 16 0.00 0.00
3:55 am 03:55 Mostly Cloudy 70 21.2 70 21 99 99 NNW 3 6 29.96 1015 10 16 0.00 0.00
4:15 am 04:15 Cloudy with Heavy Rain 71 21.9 69 20.8 94 94 NNE 6 9 29.96 1015 5 8 0.02 0.51
4:35 am 04:35 Partly Cloudy with Light Rain 71 21.6 71 21.5 99 99 Calm 29.96 1015 7 11 0.04 1.02
4:55 am 04:55 Hazy 70 21 N/A N/A Calm 29.97 1015 7 11 0.04 1.02
5:15 am 05:15 Hazy 70 21 N/A N/A Calm 29.97 1015 5 8 0.00 0.00
5:35 am 05:35 Clear with Mist and Fog 70 21 N/A N/A Calm 29.97 1015 3 4 0.00 0.00
5:55 am 05:55 Mostly Cloudy with Haze 68 20 N/A N/A Calm 29.98 1015 4 6 0.00 0.00
6:15 am 06:15 Cloudy with Light Rain 70 21 N/A N/A NNW 5 7 29.98 1015 4 6 0.00 0.00
6:35 am 06:35 Cloudy with Haze 70 21 N/A N/A N 5 7 29.98 1015 5 8 0.00 0.00
6:55 am 06:55 Cloudy with Haze 70 21 N/A N/A Calm 29.99 1016 5 8 0.00 0.00
7:15 am 07:15 Cloudy with Light Rain 70 21 N/A N/A S 5 7 30.00 1016 4 6 0.02 0.51
7:35 am 07:35 Mostly Cloudy with Mist and Fog 70 21 N/A N/A Calm 30.00 1016 4 6 0.02 0.51
7:55 am 07:55 Hazy 72 22 N/A N/A Calm 30.01 1016 5 8 0.02 0.51
8:15 am 08:15 Hazy 72 22 N/A N/A Calm 30.00 1016 5 8 0.00 0.00
8:35 am 08:35 Partly Cloudy with Mist and Fog 73 22.7 72 22.3 98 98 N 7 11 30.00 1016 7 11 0.00 0.00
8:55 am 08:55 Cloudy 73 23 70 21.2 90 90 N 9 15 30.00 1016 10 16 0.00 0.00
9:15 am 09:15 Mostly Cloudy 73 23 67 19.4 80 80 N 9 15 30.02 1017 10 16 0.00 0.00
9:35 am 09:35 Partly Cloudy 74 23.3 67 19.3 78 78 N 9 15 30.02 1016 10 16 0.00 0.00
9:55 am 09:55 Sunny 74 23.6 66 18.7 74 74 N 8 13 30.01 1016 10 16 0.00 0.00
10:15 am 10:15 Sunny 75 24 66 18.9 73 73 NNE 7 11 30.01 1016 10 16 0.00 0.00
10:35 am 10:35 Sunny 76 24.6 63 17.3 64 64 N 6 9 30.00 1016 10 16 0.00 0.00
10:55 am 10:55 Partly Cloudy 78 25.7 62 16.8 58 58 N 7 11 30.01 1016 10 16 0.00 0.00
11:15 am 11:15 Partly Cloudy 79 26 62 16.6 56 56 N 6 9 30.00 1016 10 16 0.00 0.00
11:35 am 11:35 Sunny 80 26.8 61 15.9 51 51 N 6 9 30.01 1016 10 16 0.00 0.00
11:55 am 11:55 Sunny 81 27 60 15.3 49 49 NNW 7 11 30.01 1016 10 16 0.00 0.00
12:15 pm 12:15 Sunny 81 27 59 15.1 48 48 N 7 11 30.01 1016 10 16 0.00 0.00
12:35 pm 12:35 Sunny 82 27.5 60 15.3 47 47 N 5 7 30.01 1016 10 16 0.00 0.00
12:55 pm 12:55 Sunny 82 27.9 59 15.2 46 46 NNE 3 6 30.01 1016 10 16 0.00 0.00
1:15 pm 13:15 Sunny 83 28.3 61 16 47 47 NNW 3 6 30.01 1016 10 16 0.00 0.00
1:35 pm 13:35 Sunny 84 28.9 61 16.3 46 46 NNE 5 7 30.00 1016 10 16 0.00 0.00
1:55 pm 13:55 Sunny 83 28.4 60 15.6 46 46 NNE 5 7 30.01 1016 10 16 0.00 0.00
2:15 pm 14:15 Sunny 84 28.9 60 15.7 45 45 NNE 7 11 29.99 1016 10 16 0.00 0.00
2:35 pm 14:35 Sunny 84 29 59 14.8 42 42 N 6 9 29.99 1016 10 16 0.00 0.00
2:55 pm 14:55 Sunny 85 29.7 59 14.8 40 40 NNW 6 9 29.99 1016 10 16 0.00 0.00
3:15 pm 15:15 Sunny 85 29.4 59 15 42 42 N 5 7 29.98 1015 10 16 0.00 0.00
3:35 pm 15:35 Partly Cloudy 86 29.8 59 15.1 41 41 NNW 9 15 29.98 1015 10 16 0.00 0.00
3:55 pm 15:55 Sunny 86 30 57 14.1 38 38 WNW 6 9 29.97 1015 10 16 0.00 0.00
4:15 pm 16:15 Sunny 86 30.2 57 14.1 37 37 NW 7 11 29.97 1015 10 16 0.00 0.00
4:35 pm 16:35 Sunny 86 29.8 58 14.5 39 39 N 5 7 29.96 1015 10 16 0.00 0.00
4:55 pm 16:55 Sunny 86 30.1 57 13.8 37 37 N 9 15 29.96 1015 10 16 0.00 0.00
5:15 pm 17:15 Sunny 86 29.8 57 13.7 37 37 N 5 7 29.96 1015 10 16 0.00 0.00
5:35 pm 17:35 Sunny 86 29.8 58 14.6 40 40 NW 6 9 29.96 1015 10 16 0.00 0.00
5:55 pm 17:55 Sunny 86 30.1 55 12.8 35 35 NNW 6 9 29.97 1015 10 16 0.00 0.00
6:15 pm 18:15 Partly Cloudy 86 29.9 54 12.4 34 34 NW 6 9 29.97 1015 10 16 0.00 0.00
6:35 pm 18:35 Sunny 85 29.2 55 12.9 37 37 NNW 8 13 29.96 1015 10 16 0.00 0.00
6:55 pm 18:55 Sunny 84 29.1 56 13.6 39 39 NNW 6 9 29.96 1015 10 16 0.00 0.00
7:15 pm 19:15 Sunny 82 28 57 13.8 42 42 N 3 6 29.97 1015 10 16 0.00 0.00
7:35 pm 19:35 Sunny 81 27.3 59 15 47 47 N 3 6 29.98 1015 10 16 0.00 0.00
7:55 pm 19:55 Sunny 80 26.8 57 13.7 45 45 N 7 11 29.97 1015 10 16 0.00 0.00
8:15 pm 20:15 Sunny 79 26.2 57 13.8 46 46 N 6 9 29.98 1015 10 16 0.00 0.00
8:35 pm 20:35 Sunny 78 25.5 57 13.7 48 48 N 6 9 29.97 1015 10 16 0.00 0.00
8:55 pm 20:55 Sunny 78 25.3 55 12.7 46 46 N 8 13 29.97 1015 10 16 0.00 0.00
9:15 pm 21:15 Clear 77 25.2 54 12.4 45 45 N 5 7 29.98 1015 10 16 0.00 0.00
9:35 pm 21:35 Clear 75 23.9 59 15.1 58 58 NNW 6 9 30.00 1016 10 16 0.00 0.00
9:55 pm 21:55 Clear 74 23.6 57 14.1 55 55 NNW 5 7 30.01 1016 10 16 0.00 0.00
10:15 pm 22:15 Clear 75 23.9 56 13.5 52 52 Calm 30.02 1016 10 16 0.00 0.00
10:35 pm 22:35 Clear 74 23.3 57 13.7 55 55 N 5 7 30.03 1017 10 16 0.00 0.00
10:55 pm 22:55 Clear 73 22.8 57 14.1 58 58 NW 3 6 30.04 1017 10 16 0.00 0.00
11:15 pm 23:15 Clear 73 22.7 57 13.9 58 58 N 5 7 30.04 1017 10 16 0.00 0.00
11:35 pm 23:35 Clear 73 22.8 57 13.7 57 57 NNE 5 7 30.04 1017 10 16 0.00 0.00
11:55 pm 23:55 Clear 73 22.9 57 13.7 56 56 N 6 9 30.04 1017 10 16 0.00 0.00

Powered by AerisWeather